FW4096 Weather Reports


time (UTC)temp
F
wind
direction
speed
knots
gust
knots
rain 1hr
in
rain 24hr
in
rain mn
in
humidity
%
barometer
mb
20260505090504 47 280 12.2 16.5 0.00 0.06 0.00 82 1006.8
20260505090107 47 279 12.2 16.5 0.00 0.07 0.00 82 1006.5
20260505085504 47 277 11.3 15.6 0.00 0.07 0.00 83 1006.7
20260505085107 47 277 11.3 14.8 0.00 0.08 0.00 83 1006.6
20260505084504 47 275 11.3 16.5 0.00 0.08 0.00 83 1006.6
20260505084004 47 275 11.3 16.5 0.00 0.08 0.00 83 1006.6
20260505083607 47 274 11.3 15.6 0.00 0.08 0.00 83 1006.6
20260505083004 47 272 11.3 15.6 0.00 0.09 0.00 84 1006.4
20260505082504 47 272 11.3 16.5 0.00 0.09 0.00 83 1006.4
20260505082004 47 272 11.3 16.5 0.00 0.09 0.00 84 1006.4
20260505081607 47 270 11.3 15.6 0.00 0.09 0.00 84 1006.3
20260505081003 47 270 12.2 19.1 0.00 0.09 0.00 84 1006.3
20260505080504 47 271 12.2 19.1 0.00 0.09 0.00 84 1006.2
20260505080004 47 273 12.2 17.4 0.00 0.09 0.00 84 1006.1
20260505075504 47 275 12.2 17.4 0.00 0.09 0.00 83 1006.1
20260505075004 47 278 13.0 18.2 0.00 0.09 0.00 83 1006.1
20260505074504 47 278 12.2 18.2 0.00 0.09 0.00 83 1006.0
20260505074003 48 273 11.3 16.5 0.00 0.09 0.00 83 1006.1
20260505073504 48 267 12.2 16.5 0.00 0.09 0.00 83 1006.1
20260505073003 48 262 13.0 16.5 0.00 0.09 0.00 82 1005.9
20260505072503 48 261 13.0 16.5 0.00 0.09 0.00 82 1006.0
20260505072107 48 260 12.2 16.5 0.00 0.09 0.00 82 1005.9
20260505071503 48 255 12.2 14.8 0.00 0.09 0.00 81 1005.9
20260505071106 48 252 11.3 14.8 0.00 0.09 0.00 82 1006.0
20260505070606 48 251 12.2 14.8 0.00 0.09 0.00 81 1005.8
20260505070003 48 254 12.2 16.5 0.00 0.09 0.00 81 1005.8
20260505065606 48 256 12.2 16.5 0.00 0.09 0.00 81 1005.7
20260505065106 48 254 12.2 15.6 0.00 0.09 0.00 80 1005.6
20260505064503 49 251 12.2 15.6 0.00 0.09 0.00 80 1005.5
20260505064003 49 251 12.2 16.5 0.00 0.09 0.00 80 1005.5
20260505063606 49 251 12.2 16.5 0.00 0.09 0.00 79 1005.5
20260505063003 49 249 11.3 15.6 0.00 0.09 0.00 79 1005.4
20260505062503 49 245 11.3 14.8 0.00 0.09 0.00 79 1005.3
20260505062003 49 243 12.2 16.5 0.00 0.09 0.00 79 1005.2
20260505061503 49 242 11.3 16.5 0.00 0.09 0.00 78 1005.1
20260505061003 49 242 11.3 15.6 0.00 0.09 0.00 79 1005.1
20260505060606 49 242 11.3 15.6 0.00 0.09 0.00 79 1005.0
20260505060003 49 241 11.3 14.8 0.00 0.09 0.00 80 1005.1
20260505055503 49 240 11.3 14.8 0.00 0.09 0.00 80 1004.9
20260505055003 49 237 11.3 16.5 0.00 0.09 0.00 79 1005.0
20260505054606 49 236 11.3 16.5 0.00 0.09 0.00 79 1005.0
20260505054003 49 236 12.2 16.5 0.00 0.09 0.00 79 1004.9
20260505053504 49 237 12.2 16.5 0.00 0.09 0.00 79 1004.9
20260505053004 48 238 13.0 16.5 0.00 0.09 0.00 78 1004.8
20260505052504 48 238 13.0 18.2 0.00 0.09 0.00 78 1004.8
20260505052004 48 237 13.0 18.2 0.00 0.09 0.00 78 1004.7
20260505051504 48 236 13.0 18.2 0.00 0.09 0.00 78 1004.7
20260505051004 48 235 13.0 17.4 0.00 0.09 0.00 78 1004.7
20260505050504 48 235 13.0 18.2 0.00 0.09 0.00 77 1004.6
20260505041504 48 228 12.2 16.5 0.00 0.09 0.00 80 1004.5
20260505041003 48 225 12.2 18.2 0.00 0.09 0.00 82 1004.4
20260505040606 47 224 11.3 18.2 0.00 0.09 0.00 83 1004.5
20260505040004 47 223 9.6 14.8 0.00 0.09 0.00 85 1004.4
20260505035503 47 224 10.4 14.8 0.00 0.09 0.00 86 1004.6
20260505035004 47 224 10.4 13.9 0.00 0.09 0.00 86 1004.7
20260505034504 46 223 9.6 13.9 0.00 0.09 0.00 87 1004.6
20260505034106 46 221 9.6 12.2 0.00 0.09 0.00 87 1004.5
20260505033606 46 219 9.6 13.0 0.00 0.09 0.00 88 1004.5
20260505033003 46 219 10.4 13.9 0.00 0.09 0.00 88 1004.4
20260505032503 46 221 10.4 14.8 0.00 0.09 0.00 88 1004.4
20260505032003 46 220 9.6 15.6 0.00 0.09 0.00 88 1004.5
20260505031503 46 219 10.4 15.6 0.00 0.09 0.00 88 1004.6
20260505031003 46 218 10.4 14.8 0.00 0.09 0.00 89 1004.6
20260505030503 46 218 10.4 15.6 0.00 0.09 0.00 89 1004.5
20260505030003 46 219 10.4 15.6 0.00 0.09 0.00 90 1004.5
20260505025503 45 217 9.6 13.9 0.00 0.09 0.00 90 1004.5
20260505025004 45 217 9.6 15.6 0.00 0.09 0.00 89 1004.5
20260505024503 45 220 9.6 15.6 0.00 0.09 0.00 90 1004.6
20260505024003 45 214 8.7 13.9 0.00 0.09 0.00 89 1004.5
20260505023503 45 207 8.7 12.2 0.00 0.09 0.00 89 1004.4
20260505023106 45 213 8.7 13.0 0.00 0.09 0.00 89 1004.6
20260505022503 45 216 8.7 13.0 0.00 0.09 0.00 90 1004.7
20260505022003 45 213 7.8 13.0 0.00 0.09 0.00 89 1004.6
20260505021504 45 215 9.6 14.8 0.00 0.09 0.00 90 1004.7
20260505021003 45 219 9.6 14.8 0.00 0.09 0.00 90 1004.7
20260505020606 45 221 9.6 13.9 0.00 0.09 0.00 90 1004.7
20260505020004 45 224 10.4 14.8 0.00 0.09 0.00 90 1004.7
20260505015503 45 223 10.4 14.8 0.00 0.09 0.00 90 1004.8
20260505015106 45 221 10.4 16.5 0.00 0.09 0.00 90 1004.9
20260505014503 45 221 10.4 16.5 0.00 0.09 0.00 91 1004.8
20260505014004 45 220 8.7 13.0 0.00 0.09 0.00 91 1004.8
20260505013504 45 216 7.8 12.2 0.00 0.09 0.00 91 1004.7
20260505013003 45 215 7.8 10.4 0.00 0.09 0.00 91 1004.8
20260505012504 45 216 7.0 11.3 0.00 0.09 0.00 91 1004.8
20260505012004 45 216 7.0 13.9 0.00 0.09 0.00 91 1004.8
20260505011504 45 216 7.0 13.9 0.00 0.09 0.00 91 1004.8
20260505011004 45 220 7.8 13.0 0.00 0.09 0.00 91 1004.9
20260505010504 45 222 8.7 12.2 0.00 0.09 0.00 91 1004.9
20260505010004 45 223 7.8 12.2 0.00 0.09 0.00 91 1004.9
20260505005504 45 222 7.8 11.3 0.00 0.09 0.00 91 1004.9
20260505005004 45 222 7.8 11.3 0.00 0.09 0.00 91 1004.9
20260505004504 45 224 7.8 10.4 0.00 0.09 0.00 91 1004.9
20260505004004 45 225 7.8 11.3 0.00 0.09 0.00 92 1005.0
20260505003504 45 227 7.8 12.2 0.00 0.09 0.00 92 1004.9
20260505003004 45 226 7.8 12.2 0.00 0.09 0.00 92 1004.9
20260505002504 45 225 7.8 11.3 0.00 0.09 0.00 92 1004.8
20260505002004 45 223 8.7 11.3 0.00 0.09 0.00 92 1004.9
20260505001504 45 221 7.8 12.2 0.00 0.09 0.00 92 1004.9
20260505001004 45 221 7.0 12.2 0.00 0.09 0.00 92 1004.9
20260505000607 45 219 7.0 10.4 0.00 0.09 0.00 92 1004.8
20260505000004 45 217 6.1 9.6 0.00 0.09 0.00 92 1005.0
20260504235504 45 217 7.0 10.4 0.00 0.09 0.00 91 1004.9
20260504235004 46 221 7.0 11.3 0.00 0.09 0.00 91 1004.9
20260504234504 46 223 7.8 12.2 0.00 0.09 0.00 92 1004.9
20260504234107 46 222 7.8 13.0 0.00 0.09 0.00 92 1005.0
20260504233504 46 223 8.7 13.0 0.00 0.09 0.00 92 1004.9
20260504233003 46 224 8.7 12.2 0.00 0.09 0.00 92 1005.1
20260504232503 46 226 9.6 12.2 0.00 0.09 0.00 92 1005.0
20260504232003 46 227 9.6 12.2 0.00 0.09 0.00 92 1005.0
20260504231503 46 228 9.6 15.6 0.00 0.09 0.00 92 1005.1
20260504231106 46 229 9.6 15.6 0.00 0.09 0.00 92 1005.0
20260504230004 46 228 10.4 14.8 0.00 0.09 0.00 92 1005.0
20260504225503 46 227 10.4 14.8 0.00 0.09 0.00 92 1005.0
20260504225003 46 228 10.4 13.0 0.00 0.09 0.00 92 1005.1
20260504224503 46 229 10.4 15.6 0.00 0.09 0.00 92 1005.1
20260504224003 46 230 10.4 15.6 0.00 0.09 0.00 92 1005.1
20260504223504 46 230 10.4 14.8 0.00 0.09 0.00 92 1005.2
20260504223003 46 231 10.4 14.8 0.00 0.09 0.00 92 1005.1
20260504222606 46 232 10.4 13.9 0.00 0.09 0.00 92 1005.2
20260504222106 46 234 9.6 13.9 0.00 0.09 0.00 92 1005.3
20260504221504 46 235 9.6 13.9 0.00 0.09 0.00 92 1005.3
20260504221107 46 234 8.7 13.0 0.00 0.09 0.00 93 1005.3
20260504220503 46 233 9.6 13.0 0.00 0.09 0.00 92 1005.4
20260504220003 46 231 9.6 13.0 0.00 0.09 0.00 93 1005.4
20260504215503 46 227 8.7 13.0 0.00 0.09 0.09 93 1005.3
20260504215003 46 225 8.7 12.2 0.00 0.09 0.09 93 1005.3
20260504214503 46 226 8.7 12.2 0.00 0.09 0.09 93 1005.3
20260504214003 46 225 8.7 12.2 0.00 0.09 0.09 93 1005.3
20260504213503 45 220 7.8 12.2 0.00 0.09 0.09 93 1005.4
20260504213003 45 216 6.1 10.4 0.00 0.09 0.09 93 1005.2
20260504212503 45 218 6.1 10.4 0.00 0.09 0.09 93 1005.3
20260504212003 45 220 7.0 11.3 0.00 0.09 0.09 93 1005.4
20260504211503 45 216 7.0 11.3 0.00 0.09 0.09 93 1005.4
20260504211106 45 213 5.2 10.4 0.00 0.09 0.09 93 1005.5
20260504210503 45 220 7.0 10.4 0.00 0.09 0.09 93 1005.5
20260504210003 45 221 7.8 13.0 0.00 0.09 0.09 93 1005.5
20260504205503 45 221 7.0 13.0 0.00 0.09 0.09 93 1005.5
20260504205003 45 225 8.7 13.0 0.00 0.09 0.09 93 1005.6
20260504204503 45 231 9.6 13.0 0.00 0.09 0.09 93 1005.6
20260504204108 45 234 10.4 14.8 0.00 0.09 0.09 93 1005.6
20260504203607 45 236 10.4 14.8 0.00 0.09 0.09 93 1005.6
20260504203004 45 237 9.6 13.0 0.00 0.09 0.09 93 1005.8
20260504202504 45 233 8.7 13.0 0.00 0.09 0.09 93 1005.8
20260504202004 45 232 8.7 12.2 0.00 0.09 0.09 93 1005.9
20260504201607 45 235 8.7 12.2 0.00 0.09 0.09 92 1005.9
20260504201004 44 234 8.7 13.9 0.00 0.09 0.09 92 1005.8
20260504200504 44 233 9.6 13.9 0.00 0.09 0.09 92 1005.9
20260504200004 44 232 9.6 13.9 0.00 0.09 0.09 92 1005.9
20260504195504 44 234 9.6 13.9 0.00 0.09 0.09 92 1005.8
20260504195004 44 239 9.6 13.0 0.00 0.09 0.09 92 1005.8
20260504194607 44 238 9.6 13.0 0.00 0.09 0.09 92 1005.8
20260504194004 44 234 8.7 13.0 0.00 0.09 0.09 92 1005.7
20260504193504 45 227 7.0 10.4 0.00 0.09 0.09 92 1005.7
20260504193004 44 212 4.3 10.4 0.00 0.09 0.09 92 1005.7
20260504192607 43 182 2.6 6.1 0.00 0.09 0.09 92 1005.7
20260504192004 43 167 2.6 5.2 0.00 0.09 0.09 92 1005.5
20260504191503 43 165 2.6 5.2 0.00 0.09 0.09 92 1005.6
20260504191003 43 171 2.6 4.3 0.00 0.09 0.09 92 1005.6
20260504190504 43 186 1.7 4.3 0.00 0.09 0.09 92 1005.6
20260504190107 43 195 1.7 2.6 0.00 0.09 0.09 92 1005.5
20260504185504 43 203 1.7 2.6 0.00 0.09 0.09 92 1005.5
20260504185004 43 216 2.6 3.5 0.00 0.09 0.09 92 1005.5
20260504184607 43 225 2.6 3.5 0.00 0.09 0.09 92 1005.4
20260504184107 43 228 2.6 4.3 0.00 0.09 0.09 92 1005.4
20260504183503 43 226 2.6 4.3 0.00 0.09 0.09 92 1005.4
20260504183003 43 226 2.6 4.3 0.00 0.09 0.09 92 1005.4
20260504182503 43 227 1.7 4.3 0.00 0.09 0.09 92 1005.4
20260504182003 43 229 0.9 2.6 0.00 0.09 0.09 92 1005.4
20260504181503 43 230 1.7 3.5 0.00 0.09 0.09 92 1005.5
20260504181003 44 231 2.6 4.3 0.00 0.09 0.09 92 1005.4
20260504180503 43 237 2.6 6.1 0.00 0.09 0.09 91 1005.3
20260504180004 43 242 3.5 6.1 0.00 0.09 0.09 91 1005.3
20260504175006 43 246 4.3 7.8 0.00 0.09 0.09 91 1005.3
20260504174503 43 257 5.2 7.8 0.00 0.09 0.09 91 1005.2
20260504174003 43 268 5.2 8.7 0.00 0.09 0.09 91 1005.3
20260504173606 43 269 5.2 8.7 0.00 0.09 0.09 91 1005.3
20260504173003 43 262 5.2 7.8 0.00 0.09 0.09 91 1005.3
20260504172503 43 255 6.1 9.6 0.00 0.09 0.09 90 1005.4
20260504172003 44 262 7.0 10.4 0.00 0.09 0.09 90 1005.4
20260504171503 44 268 7.0 10.4 0.00 0.09 0.09 89 1005.4
20260504171003 44 266 5.2 9.6 0.00 0.09 0.09 89 1005.2
20260504170503 44 270 5.2 8.7 0.00 0.09 0.09 88 1005.3
20260504151107 46 257 5.2 7.0 0.00 0.09 0.09 87 1004.7
20260504150503 47 260 5.2 6.1 0.00 0.09 0.09 88 1004.8
20260504150107 46 263 4.3 6.1 0.00 0.09 0.09 87 1004.7
20260504141003 48 262 2.6 3.5 0.00 0.09 0.09 88 1004.1
20260504140503 48 269 2.6 5.2 0.00 0.09 0.09 88 1004.1
20260504140106 49 272 2.6 5.2 0.00 0.09 0.09 89 1004.2
20260504130503 46 14 2.6 4.3 0.01 0.09 0.09 91 1004.1
20260504110503 44 78 1.7 3.5 0.02 0.09 0.09 90 1004.0
20260504100606 46 17 2.6 4.3 0.03 0.06 0.06 89 1004.7